Location: Exeidioux
(45.6312°N, 1.6819°E)
Time: 20:49:23
(UTC+00:00)

Lacrosse 4 Rocket - Pass Details

Date: 03 March 2021
Orbit: 537 x 620 km, 68.0° (Epoch: 13 April)

Event Time Altitude Azimuth Distance (km) Brightness Sun altitude
Rises 20:47:55 0° 232° (SW) 2,829 5.2 -32.3°
Reaches altitude 10° 20:50:16 10° 241° (WSW) 1,944 4.4 -32.6°
Enters shadow 20:51:00 14° 246° (WSW) 1,688 4.1 -32.7°
